Time,TemperatureF,DewpointF,PressureIn,WindDirection,WindDirectionDegrees,WindSpeedMPH,WindSpeedGustMPH,Humidity,HourlyPrecipIn,Conditions,Clouds,dailyrainin,SoftwareType,DateUTC
2013-02-03 00:00:00,19.0,14.0,30.27,NNW,337,2.0,6.0,76,0.00,,,0.00,Rainwise IP-100,2013-02-03 05:00:00,
2013-02-03 00:01:00,19.0,14.0,30.27,NNW,337,5.0,6.0,76,0.00,,,0.00,Rainwise IP-100,2013-02-03 05:01:00,
2013-02-03 00:06:00,19.0,14.0,30.26,NNW,337,4.0,6.0,76,0.00,,,0.00,Rainwise IP-100,2013-02-03 05:06:00,
2013-02-03 00:11:00,19.0,14.0,30.26,NNW,337,4.0,6.0,76,0.00,,,0.00,Rainwise IP-100,2013-02-03 05:11:00,
2013-02-03 00:16:00,19.0,14.0,30.26,NNW,337,2.0,6.0,76,0.00,,,0.00,Rainwise IP-100,2013-02-03 05:16:00,
2013-02-03 00:19:00,19.0,14.0,30.26,NNW,337,3.0,5.0,76,0.00,,,0.00,Rainwise IP-100,2013-02-03 05:19:00,
2013-02-03 00:24:00,19.0,14.0,30.26,NNW,337,0.0,6.0,76,0.00,,,0.00,Rainwise IP-100,2013-02-03 05:24:00,
2013-02-03 00:29:00,19.0,14.0,30.26,NNW,337,0.0,3.0,76,0.00,,,0.00,Rainwise IP-100,2013-02-03 05:29:00,
2013-02-03 00:34:00,19.0,14.0,30.26,NNW,337,3.0,5.0,76,0.00,,,0.00,Rainwise IP-100,2013-02-03 05:34:00,
2013-02-03 00:39:00,19.0,14.0,30.26,NNW,337,4.0,6.0,76,0.00,,,0.00,Rainwise IP-100,2013-02-03 05:39:00,
2013-02-03 00:44:00,19.0,14.0,30.26,NNW,337,1.0,6.0,76,0.00,,,0.00,Rainwise IP-100,2013-02-03 05:44:00,
2013-02-03 00:49:00,19.0,14.0,30.26,NW,315,0.0,4.0,76,0.00,,,0.00,Rainwise IP-100,2013-02-03 05:49:00,
2013-02-03 00:56:00,19.0,14.0,30.26,NW,315,0.0,2.0,76,0.00,,,0.00,Rainwise IP-100,2013-02-03 05:56:00,
2013-02-03 01:00:00,19.0,14.0,30.26,NNW,337,5.0,6.0,76,0.00,,,0.00,Rainwise IP-100,2013-02-03 06:00:00,
2013-02-03 01:05:00,19.0,14.0,30.26,North,360,0.0,6.0,76,0.00,,,0.00,Rainwise IP-100,2013-02-03 06:05:00,
2013-02-03 01:11:00,19.0,14.0,30.26,NNW,337,3.0,6.0,76,0.00,,,0.00,Rainwise IP-100,2013-02-03 06:11:00,
2013-02-03 01:16:00,19.0,14.0,30.26,NNE,22,4.0,5.0,75,0.00,,,0.00,Rainwise IP-100,2013-02-03 06:16:00,
2013-02-03 01:21:00,19.0,14.0,30.26,NNE,22,6.0,7.0,75,0.00,,,0.00,Rainwise IP-100,2013-02-03 06:21:00,
2013-02-03 01:26:00,19.0,14.0,30.26,NNE,22,5.0,7.0,75,0.00,,,0.00,Rainwise IP-100,2013-02-03 06:26:00,
2013-02-03 01:31:00,19.0,14.0,30.26,NE,45,2.0,7.0,75,0.00,,,0.00,Rainwise IP-100,2013-02-03 06:31:00,
2013-02-03 01:36:00,19.0,14.0,30.26,NE,45,3.0,8.0,75,0.00,,,0.00,Rainwise IP-100,2013-02-03 06:36:00,
2013-02-03 01:41:00,19.0,14.0,30.26,NNE,22,4.0,7.0,75,0.00,,,0.00,Rainwise IP-100,2013-02-03 06:41:00,
2013-02-03 01:46:00,19.0,14.0,30.26,North,360,0.0,7.0,75,0.00,,,0.00,Rainwise IP-100,2013-02-03 06:46:00,
2013-02-03 01:51:00,19.0,14.0,30.26,NNW,337,2.0,5.0,75,0.00,,,0.00,Rainwise IP-100,2013-02-03 06:51:00,
2013-02-03 01:56:00,19.0,14.0,30.26,North,360,0.0,5.0,75,0.00,,,0.00,Rainwise IP-100,2013-02-03 06:56:00,
2013-02-03 02:01:00,19.0,14.0,30.26,NNE,22,2.0,5.0,75,0.00,,,0.00,Rainwise IP-100,2013-02-03 07:01:00,
2013-02-03 02:06:00,19.0,14.0,30.26,North,360,0.0,5.0,75,0.00,,,0.00,Rainwise IP-100,2013-02-03 07:06:00,
2013-02-03 02:11:00,19.0,14.0,30.26,NNW,337,0.0,6.0,75,0.00,,,0.00,Rainwise IP-100,2013-02-03 07:11:00,
2013-02-03 02:16:00,19.0,14.0,30.26,North,360,0.0,6.0,75,0.00,,,0.00,Rainwise IP-100,2013-02-03 07:16:00,
2013-02-03 02:21:00,19.0,14.0,30.26,North,360,1.0,6.0,75,0.00,,,0.00,Rainwise IP-100,2013-02-03 07:21:00,
2013-02-03 02:26:00,18.0,14.0,30.26,NNW,337,0.0,4.0,76,0.00,,,0.00,Rainwise IP-100,2013-02-03 07:26:00,
2013-02-03 02:31:00,18.0,14.0,30.25,NNW,337,0.0,0.0,76,0.00,,,0.00,Rainwise IP-100,2013-02-03 07:31:00,
2013-02-03 02:36:00,18.0,14.0,30.25,NNW,337,2.0,6.0,76,0.00,,,0.00,Rainwise IP-100,2013-02-03 07:36:00,
2013-02-03 02:41:00,18.0,14.0,30.25,NW,315,2.0,5.0,76,0.00,,,0.00,Rainwise IP-100,2013-02-03 07:41:00,
2013-02-03 02:46:00,18.0,14.0,30.25,NNW,337,1.0,5.0,76,0.00,,,0.00,Rainwise IP-100,2013-02-03 07:46:00,
2013-02-03 02:51:00,18.0,14.0,30.25,NNW,337,1.0,7.0,76,0.00,,,0.00,Rainwise IP-100,2013-02-03 07:51:00,
2013-02-03 02:56:00,18.0,14.0,30.25,NE,45,6.0,7.0,76,0.00,,,0.00,Rainwise IP-100,2013-02-03 07:56:00,
2013-02-03 03:02:00,18.0,14.0,30.25,NNE,22,2.0,9.0,76,0.00,,,0.00,Rainwise IP-100,2013-02-03 08:02:00,
2013-02-03 03:07:00,18.0,14.0,30.25,NNE,22,7.0,7.0,76,0.00,,,0.00,Rainwise IP-100,2013-02-03 08:07:00,
2013-02-03 03:12:00,18.0,14.0,30.25,NNW,337,5.0,8.0,76,0.00,,,0.00,Rainwise IP-100,2013-02-03 08:12:00,
2013-02-03 03:17:00,18.0,14.0,30.25,North,360,4.0,8.0,76,0.00,,,0.00,Rainwise IP-100,2013-02-03 08:17:00,
2013-02-03 03:22:00,18.0,14.0,30.25,North,360,3.0,6.0,76,0.00,,,0.00,Rainwise IP-100,2013-02-03 08:22:00,
2013-02-03 03:27:00,19.0,14.0,30.25,North,360,1.0,9.0,75,0.00,,,0.00,Rainwise IP-100,2013-02-03 08:27:00,
2013-02-03 03:32:00,19.0,14.0,30.24,NNW,337,4.0,7.0,75,0.00,,,0.00,Rainwise IP-100,2013-02-03 08:32:00,
2013-02-03 03:37:00,19.0,14.0,30.24,NNE,22,6.0,9.0,75,0.00,,,0.00,Rainwise IP-100,2013-02-03 08:37:00,
2013-02-03 03:42:00,19.0,14.0,30.24,North,360,7.0,9.0,75,0.00,,,0.00,Rainwise IP-100,2013-02-03 08:42:00,
2013-02-03 03:47:00,18.0,14.0,30.24,North,360,6.0,9.0,76,0.00,,,0.00,Rainwise IP-100,2013-02-03 08:47:00,
2013-02-03 03:52:00,18.0,14.0,30.24,North,360,4.0,8.0,76,0.00,,,0.00,Rainwise IP-100,2013-02-03 08:52:00,
2013-02-03 03:57:00,19.0,14.0,30.24,North,360,6.0,7.0,75,0.00,,,0.00,Rainwise IP-100,2013-02-03 08:57:00,
2013-02-03 04:02:00,19.0,14.0,30.24,NNE,22,8.0,9.0,75,0.00,,,0.00,Rainwise IP-100,2013-02-03 09:02:00,
2013-02-03 04:07:00,19.0,14.0,30.23,NNE,22,6.0,9.0,75,0.00,,,0.00,Rainwise IP-100,2013-02-03 09:07:00,
2013-02-03 04:12:00,19.0,14.0,30.23,NNE,22,6.0,10.0,75,0.00,,,0.00,Rainwise IP-100,2013-02-03 09:12:00,
2013-02-03 04:17:00,19.0,14.0,30.23,North,360,5.0,9.0,75,0.00,,,0.00,Rainwise IP-100,2013-02-03 09:17:00,
2013-02-03 04:22:00,19.0,14.0,30.23,NNE,22,7.0,9.0,75,0.00,,,0.00,Rainwise IP-100,2013-02-03 09:22:00,
2013-02-03 04:27:00,19.0,14.0,30.23,NE,45,6.0,9.0,75,0.00,,,0.00,Rainwise IP-100,2013-02-03 09:27:00,
2013-02-03 04:32:00,19.0,14.0,30.23,NNW,337,6.0,9.0,75,0.00,,,0.00,Rainwise IP-100,2013-02-03 09:32:00,
2013-02-03 04:37:00,19.0,14.0,30.23,NNE,22,5.0,10.0,75,0.00,,,0.00,Rainwise IP-100,2013-02-03 09:37:00,
2013-02-03 04:43:00,19.0,14.0,30.23,NNE,22,6.0,9.0,75,0.00,,,0.00,Rainwise IP-100,2013-02-03 09:43:00,
2013-02-03 04:48:00,18.0,14.0,30.23,NNE,22,7.0,9.0,75,0.00,,,0.00,Rainwise IP-100,2013-02-03 09:48:00,
2013-02-03 04:55:00,18.0,14.0,30.23,NNE,22,7.0,9.0,75,0.00,,,0.00,Rainwise IP-100,2013-02-03 09:55:00,
2013-02-03 05:00:00,18.0,14.0,30.23,NNE,22,8.0,10.0,75,0.00,,,0.00,Rainwise IP-100,2013-02-03 10:00:00,
2013-02-03 05:05:00,18.0,14.0,30.23,North,360,7.0,10.0,75,0.00,,,0.00,Rainwise IP-100,2013-02-03 10:05:00,
2013-02-03 05:12:00,18.0,14.0,30.23,North,360,8.0,11.0,76,0.00,,,0.00,Rainwise IP-100,2013-02-03 10:12:00,
2013-02-03 05:17:00,18.0,14.0,30.23,NNE,22,6.0,11.0,76,0.00,,,0.00,Rainwise IP-100,2013-02-03 10:17:00,
2013-02-03 05:22:00,18.0,14.0,30.23,NNE,22,7.0,11.0,76,0.00,,,0.00,Rainwise IP-100,2013-02-03 10:22:00,
2013-02-03 05:27:00,18.0,14.0,30.23,NE,45,8.0,11.0,76,0.00,,,0.00,Rainwise IP-100,2013-02-03 10:27:00,
2013-02-03 05:32:00,18.0,14.0,30.23,NNE,22,7.0,10.0,76,0.00,,,0.00,Rainwise IP-100,2013-02-03 10:32:00,
2013-02-03 05:37:00,18.0,14.0,30.23,NNE,22,9.0,10.0,76,0.00,,,0.00,Rainwise IP-100,2013-02-03 10:37:00,
2013-02-03 05:42:00,19.0,14.0,30.22,NNE,22,8.0,10.0,75,0.00,,,0.00,Rainwise IP-100,2013-02-03 10:42:00,
2013-02-03 05:47:00,18.0,14.0,30.22,NNE,22,7.0,10.0,76,0.00,,,0.00,Rainwise IP-100,2013-02-03 10:47:00,
2013-02-03 05:52:00,18.0,14.0,30.22,North,360,7.0,13.0,76,0.00,,,0.00,Rainwise IP-100,2013-02-03 10:52:00,
2013-02-03 05:57:00,18.0,14.0,30.22,NNE,22,8.0,10.0,76,0.00,,,0.00,Rainwise IP-100,2013-02-03 10:57:00,
2013-02-03 06:02:00,18.0,14.0,30.22,NNE,22,7.0,10.0,76,0.00,,,0.00,Rainwise IP-100,2013-02-03 11:02:00,
2013-02-03 06:07:00,18.0,14.0,30.21,North,360,7.0,11.0,76,0.00,,,0.00,Rainwise IP-100,2013-02-03 11:07:00,
2013-02-03 06:12:00,18.0,14.0,30.22,NNE,22,8.0,10.0,76,0.00,,,0.00,Rainwise IP-100,2013-02-03 11:12:00,
2013-02-03 06:17:00,18.0,14.0,30.22,North,360,6.0,9.0,76,0.00,,,0.00,Rainwise IP-100,2013-02-03 11:17:00,
2013-02-03 06:22:00,18.0,14.0,30.21,NNE,22,6.0,10.0,76,0.00,,,0.00,Rainwise IP-100,2013-02-03 11:22:00,
2013-02-03 06:28:00,18.0,14.0,30.21,NNE,22,6.0,10.0,76,0.00,,,0.00,Rainwise IP-100,2013-02-03 11:28:00,
2013-02-03 06:33:00,18.0,14.0,30.21,NNE,22,7.0,9.0,75,0.00,,,0.00,Rainwise IP-100,2013-02-03 11:33:00,
2013-02-03 06:38:00,18.0,14.0,30.21,NNE,22,6.0,10.0,75,0.00,,,0.00,Rainwise IP-100,2013-02-03 11:38:00,
2013-02-03 06:47:00,18.0,14.0,30.21,NNE,22,7.0,10.0,76,0.00,,,0.00,Rainwise IP-100,2013-02-03 11:47:00,
2013-02-03 06:54:00,18.0,14.0,30.21,NNE,22,8.0,10.0,75,0.00,,,0.00,Rainwise IP-100,2013-02-03 11:54:00,
2013-02-03 07:00:00,18.0,14.0,30.21,NNE,22,8.0,9.0,75,0.00,,,0.00,Rainwise IP-100,2013-02-03 12:00:00,
2013-02-03 07:05:00,18.0,14.0,30.21,North,360,8.0,10.0,76,0.00,,,0.00,Rainwise IP-100,2013-02-03 12:05:00,
2013-02-03 07:10:00,18.0,14.0,30.21,NE,45,7.0,12.0,76,0.00,,,0.00,Rainwise IP-100,2013-02-03 12:10:00,
2013-02-03 07:15:00,18.0,14.0,30.21,NNE,22,7.0,12.0,76,0.00,,,0.00,Rainwise IP-100,2013-02-03 12:15:00,
2013-02-03 07:20:00,18.0,14.0,30.21,NNE,22,7.0,10.0,76,0.00,,,0.00,Rainwise IP-100,2013-02-03 12:20:00,
2013-02-03 07:25:00,18.0,14.0,30.21,North,360,10.0,11.0,76,0.00,,,0.00,Rainwise IP-100,2013-02-03 12:25:00,
2013-02-03 07:30:00,18.0,14.0,30.21,NNE,22,6.0,11.0,76,0.00,,,0.00,Rainwise IP-100,2013-02-03 12:30:00,
2013-02-03 07:35:00,18.0,14.0,30.20,North,360,9.0,12.0,76,0.00,,,0.00,Rainwise IP-100,2013-02-03 12:35:00,
2013-02-03 07:40:00,18.0,14.0,30.20,NNE,22,7.0,10.0,76,0.00,,,0.00,Rainwise IP-100,2013-02-03 12:40:00,
2013-02-03 07:45:00,18.0,14.0,30.20,NNE,22,6.0,10.0,76,0.00,,,0.00,Rainwise IP-100,2013-02-03 12:45:00,
2013-02-03 07:50:00,18.0,14.0,30.20,NNE,22,5.0,10.0,76,0.00,,,0.00,Rainwise IP-100,2013-02-03 12:50:00,
2013-02-03 07:55:00,18.0,14.0,30.20,NNW,337,6.0,9.0,76,0.00,,,0.00,Rainwise IP-100,2013-02-03 12:55:00,
2013-02-03 08:00:00,18.0,14.0,30.20,NNW,337,0.0,8.0,76,0.00,,,0.00,Rainwise IP-100,2013-02-03 13:00:00,
2013-02-03 08:05:00,18.0,14.0,30.19,NNW,337,7.0,8.0,76,0.00,,,0.00,Rainwise IP-100,2013-02-03 13:05:00,
2013-02-03 08:10:00,19.0,14.0,30.19,NNE,22,8.0,9.0,75,0.00,,,0.00,Rainwise IP-100,2013-02-03 13:10:00,
2013-02-03 08:15:00,19.0,14.0,30.19,North,360,7.0,10.0,75,0.00,,,0.00,Rainwise IP-100,2013-02-03 13:15:00,
2013-02-03 08:20:00,19.0,14.0,30.19,NE,45,9.0,13.0,75,0.00,,,0.00,Rainwise IP-100,2013-02-03 13:20:00,
2013-02-03 08:25:00,20.0,14.0,30.19,NNW,337,3.0,12.0,75,0.00,,,0.00,Rainwise IP-100,2013-02-03 13:25:00,
2013-02-03 08:30:00,20.0,14.0,30.19,NNW,337,12.0,13.0,75,0.00,,,0.00,Rainwise IP-100,2013-02-03 13:30:00,
2013-02-03 08:35:00,20.0,14.0,30.19,NNW,337,10.0,13.0,76,0.00,,,0.00,Rainwise IP-100,2013-02-03 13:35:00,
2013-02-03 08:40:00,20.0,14.0,30.18,NNE,22,6.0,12.0,76,0.00,,,0.00,Rainwise IP-100,2013-02-03 13:40:00,
2013-02-03 08:45:00,20.0,14.0,30.19,North,360,7.0,17.0,76,0.00,,,0.00,Rainwise IP-100,2013-02-03 13:45:00,
2013-02-03 08:50:00,21.0,14.0,30.18,NNE,22,10.0,16.0,75,0.00,,,0.00,Rainwise IP-100,2013-02-03 13:50:00,
2013-02-03 08:55:00,21.0,14.0,30.18,North,360,6.0,13.0,75,0.00,,,0.00,Rainwise IP-100,2013-02-03 13:55:00,
2013-02-03 09:01:00,22.0,16.0,30.17,NNE,22,9.0,13.0,75,0.00,,,0.00,Rainwise IP-100,2013-02-03 14:01:00,
2013-02-03 09:06:00,22.0,16.0,30.17,ENE,67,10.0,13.0,75,0.00,,,0.00,Rainwise IP-100,2013-02-03 14:06:00,
2013-02-03 09:12:00,23.0,16.0,30.18,NNE,22,6.0,15.0,75,0.00,,,0.00,Rainwise IP-100,2013-02-03 14:12:00,
2013-02-03 09:17:00,23.0,16.0,30.18,NNE,22,6.0,12.0,75,0.00,,,0.00,Rainwise IP-100,2013-02-03 14:17:00,
2013-02-03 09:22:00,23.0,16.0,30.18,NNE,22,9.0,14.0,75,0.00,,,0.00,Rainwise IP-100,2013-02-03 14:22:00,
2013-02-03 09:27:00,22.0,16.0,30.18,NNE,22,12.0,16.0,75,0.00,,,0.00,Rainwise IP-100,2013-02-03 14:27:00,
2013-02-03 09:32:00,22.0,16.0,30.18,ENE,67,9.0,15.0,75,0.00,,,0.00,Rainwise IP-100,2013-02-03 14:32:00,
2013-02-03 09:38:00,22.0,16.0,30.18,NNE,22,7.0,15.0,75,0.00,,,0.00,Rainwise IP-100,2013-02-03 14:38:00,
2013-02-03 09:43:00,23.0,16.0,30.18,NNE,22,10.0,14.0,75,0.00,,,0.00,Rainwise IP-100,2013-02-03 14:43:00,
2013-02-03 09:48:00,23.0,16.0,30.17,NNE,22,9.0,14.0,75,0.00,,,0.00,Rainwise IP-100,2013-02-03 14:48:00,
2013-02-03 09:53:00,23.0,16.0,30.17,North,360,7.0,14.0,75,0.00,,,0.00,Rainwise IP-100,2013-02-03 14:53:00,
2013-02-03 09:58:00,23.0,16.0,30.17,NE,45,9.0,14.0,75,0.00,,,0.00,Rainwise IP-100,2013-02-03 14:58:00,
2013-02-03 10:03:00,23.0,16.0,30.17,NNW,337,11.0,15.0,75,0.00,,,0.00,Rainwise IP-100,2013-02-03 15:03:00,
2013-02-03 10:08:00,24.0,18.0,30.17,North,360,9.0,15.0,74,0.00,,,0.00,Rainwise IP-100,2013-02-03 15:08:00,
2013-02-03 10:13:00,24.0,18.0,30.17,North,360,10.0,14.0,74,0.00,,,0.00,Rainwise IP-100,2013-02-03 15:13:00,
2013-02-03 10:18:00,24.0,18.0,30.16,NE,45,10.0,13.0,74,0.00,,,0.00,Rainwise IP-100,2013-02-03 15:18:00,
2013-02-03 10:23:00,23.0,16.0,30.17,NE,45,11.0,13.0,75,0.00,,,0.00,Rainwise IP-100,2013-02-03 15:23:00,
2013-02-03 10:28:00,23.0,16.0,30.18,North,360,9.0,12.0,75,0.00,,,0.00,Rainwise IP-100,2013-02-03 15:28:00,
2013-02-03 10:33:00,22.0,16.0,30.18,NNW,337,13.0,13.0,75,0.00,,,0.00,Rainwise IP-100,2013-02-03 15:33:00,
2013-02-03 10:38:00,22.0,16.0,30.18,NNE,22,11.0,15.0,75,0.00,,,0.00,Rainwise IP-100,2013-02-03 15:38:00,
2013-02-03 10:43:00,22.0,16.0,30.17,NNW,337,7.0,13.0,75,0.00,,,0.00,Rainwise IP-100,2013-02-03 15:43:00,
2013-02-03 10:48:00,22.0,16.0,30.17,NNE,22,5.0,12.0,75,0.00,,,0.00,Rainwise IP-100,2013-02-03 15:48:00,
2013-02-03 10:55:00,22.0,16.0,30.17,North,360,9.0,10.0,75,0.00,,,0.00,Rainwise IP-100,2013-02-03 15:55:00,
2013-02-03 11:00:00,22.0,16.0,30.16,NNW,337,9.0,13.0,75,0.00,,,0.00,Rainwise IP-100,2013-02-03 16:00:00,
2013-02-03 11:05:00,22.0,16.0,30.15,North,360,6.0,14.0,75,0.00,,,0.00,Rainwise IP-100,2013-02-03 16:05:00,
2013-02-03 11:10:00,22.0,16.0,30.15,North,360,8.0,11.0,75,0.00,,,0.00,Rainwise IP-100,2013-02-03 16:10:00,
2013-02-03 11:20:00,22.0,16.0,30.12,NNW,337,9.0,17.0,75,0.00,,,0.00,Rainwise IP-100,2013-02-03 16:20:00,
2013-02-03 11:25:00,23.0,16.0,30.11,NW,315,9.0,14.0,75,0.00,,,0.00,Rainwise IP-100,2013-02-03 16:25:00,
2013-02-03 11:30:00,23.0,16.0,30.10,North,360,12.0,17.0,75,0.00,,,0.00,Rainwise IP-100,2013-02-03 16:30:00,
2013-02-03 11:35:00,23.0,16.0,30.10,NNW,337,10.0,16.0,75,0.00,,,0.00,Rainwise IP-100,2013-02-03 16:35:00,
2013-02-03 11:40:00,23.0,16.0,30.09,North,360,13.0,17.0,75,0.00,,,0.00,Rainwise IP-100,2013-02-03 16:40:00,
2013-02-03 11:45:00,23.0,16.0,30.10,NNW,337,12.0,16.0,75,0.00,,,0.00,Rainwise IP-100,2013-02-03 16:45:00,
2013-02-03 11:50:00,24.0,18.0,30.10,North,360,15.0,17.0,74,0.00,,,0.00,Rainwise IP-100,2013-02-03 16:50:00,
2013-02-03 11:56:00,25.0,18.0,30.09,NNE,22,16.0,17.0,74,0.00,,,0.00,Rainwise IP-100,2013-02-03 16:56:00,
2013-02-03 12:01:00,24.0,18.0,30.09,North,360,12.0,17.0,74,0.00,,,0.00,Rainwise IP-100,2013-02-03 17:01:00,
2013-02-03 12:06:00,25.0,18.0,30.09,NNE,22,15.0,16.0,74,0.00,,,0.00,Rainwise IP-100,2013-02-03 17:06:00,
2013-02-03 12:11:00,25.0,18.0,30.09,North,360,12.0,17.0,74,0.00,,,0.00,Rainwise IP-100,2013-02-03 17:11:00,
2013-02-03 12:17:00,24.0,18.0,30.08,NNW,337,9.0,19.0,74,0.00,,,0.00,Rainwise IP-100,2013-02-03 17:17:00,
2013-02-03 12:22:00,24.0,18.0,30.08,NNE,22,12.0,17.0,74,0.00,,,0.00,Rainwise IP-100,2013-02-03 17:22:00,
2013-02-03 12:27:00,24.0,18.0,30.08,North,360,13.0,17.0,74,0.00,,,0.00,Rainwise IP-100,2013-02-03 17:27:00,
2013-02-03 12:32:00,24.0,18.0,30.07,NNW,337,10.0,19.0,74,0.00,,,0.00,Rainwise IP-100,2013-02-03 17:32:00,
2013-02-03 12:37:00,24.0,18.0,30.07,NNE,22,15.0,17.0,74,0.00,,,0.00,Rainwise IP-100,2013-02-03 17:37:00,
2013-02-03 12:42:00,25.0,18.0,30.07,NNE,22,13.0,19.0,74,0.00,,,0.00,Rainwise IP-100,2013-02-03 17:42:00,
2013-02-03 12:47:00,25.0,18.0,30.06,North,360,11.0,18.0,74,0.00,,,0.00,Rainwise IP-100,2013-02-03 17:47:00,
2013-02-03 12:52:00,25.0,18.0,30.05,NE,45,13.0,17.0,74,0.00,,,0.00,Rainwise IP-100,2013-02-03 17:52:00,
2013-02-03 12:57:00,25.0,18.0,30.05,NNE,22,15.0,20.0,74,0.00,,,0.00,Rainwise IP-100,2013-02-03 17:57:00,
2013-02-03 13:04:00,25.0,18.0,30.04,NNE,22,18.0,18.0,74,0.00,,,0.00,Rainwise IP-100,2013-02-03 18:04:00,
2013-02-03 13:09:00,25.0,18.0,30.03,North,360,16.0,22.0,74,0.00,,,0.00,Rainwise IP-100,2013-02-03 18:09:00,
2013-02-03 13:14:00,25.0,18.0,30.03,ENE,67,15.0,17.0,74,0.00,,,0.00,Rainwise IP-100,2013-02-03 18:14:00,
2013-02-03 13:19:00,25.0,18.0,30.03,North,360,9.0,17.0,74,0.00,,,0.00,Rainwise IP-100,2013-02-03 18:19:00,
2013-02-03 13:26:00,25.0,18.0,30.03,NNE,22,11.0,20.0,74,0.00,,,0.00,Rainwise IP-100,2013-02-03 18:26:00,
2013-02-03 13:31:00,25.0,18.0,30.03,NE,45,14.0,20.0,74,0.00,,,0.00,Rainwise IP-100,2013-02-03 18:31:00,
2013-02-03 13:37:00,25.0,18.0,30.03,NNW,337,16.0,17.0,74,0.00,,,0.00,Rainwise IP-100,2013-02-03 18:37:00,
2013-02-03 13:42:00,25.0,18.0,30.03,NNE,22,15.0,19.0,74,0.00,,,0.00,Rainwise IP-100,2013-02-03 18:42:00,
2013-02-03 13:47:00,25.0,18.0,30.03,NE,45,14.0,17.0,74,0.00,,,0.00,Rainwise IP-100,2013-02-03 18:47:00,
2013-02-03 13:52:00,26.0,18.0,30.03,NNE,22,12.0,19.0,74,0.00,,,0.00,Rainwise IP-100,2013-02-03 18:52:00,
2013-02-03 13:57:00,26.0,18.0,30.03,NNE,22,13.0,16.0,74,0.00,,,0.00,Rainwise IP-100,2013-02-03 18:57:00,
2013-02-03 14:02:00,26.0,18.0,30.03,NNE,22,14.0,17.0,74,0.00,,,0.00,Rainwise IP-100,2013-02-03 19:02:00,
2013-02-03 14:07:00,26.0,18.0,30.02,NNE,22,11.0,17.0,74,0.00,,,0.00,Rainwise IP-100,2013-02-03 19:07:00,
2013-02-03 14:12:00,26.0,18.0,30.02,North,360,14.0,15.0,74,0.00,,,0.00,Rainwise IP-100,2013-02-03 19:12:00,
2013-02-03 14:17:00,26.0,18.0,30.01,NNE,22,13.0,20.0,74,0.00,,,0.00,Rainwise IP-100,2013-02-03 19:17:00,
2013-02-03 14:22:00,26.0,18.0,30.02,NNE,22,12.0,17.0,74,0.00,,,0.00,Rainwise IP-100,2013-02-03 19:22:00,
2013-02-03 14:27:00,26.0,18.0,30.01,NNE,22,13.0,16.0,74,0.00,,,0.00,Rainwise IP-100,2013-02-03 19:27:00,
2013-02-03 14:32:00,26.0,18.0,30.01,North,360,13.0,18.0,74,0.00,,,0.00,Rainwise IP-100,2013-02-03 19:32:00,
2013-02-03 14:37:00,26.0,18.0,30.01,NNW,337,13.0,17.0,74,0.00,,,0.00,Rainwise IP-100,2013-02-03 19:37:00,
2013-02-03 14:42:00,26.0,18.0,30.01,NNW,337,13.0,16.0,74,0.00,,,0.00,Rainwise IP-100,2013-02-03 19:42:00,
2013-02-03 14:48:00,26.0,18.0,30.02,North,360,12.0,16.0,74,0.00,,,0.00,Rainwise IP-100,2013-02-03 19:48:00,
2013-02-03 14:53:00,26.0,18.0,30.02,North,360,10.0,17.0,74,0.00,,,0.00,Rainwise IP-100,2013-02-03 19:53:00,
2013-02-03 14:58:00,26.0,18.0,30.02,NNW,337,10.0,17.0,74,0.00,,,0.00,Rainwise IP-100,2013-02-03 19:58:00,
2013-02-03 15:03:00,26.0,18.0,30.02,North,360,12.0,16.0,74,0.00,,,0.00,Rainwise IP-100,2013-02-03 20:03:00,
2013-02-03 15:08:00,26.0,18.0,30.01,NNE,22,14.0,16.0,74,0.00,,,0.00,Rainwise IP-100,2013-02-03 20:08:00,
2013-02-03 15:13:00,26.0,18.0,30.01,North,360,13.0,19.0,74,0.00,,,0.00,Rainwise IP-100,2013-02-03 20:13:00,
2013-02-03 15:18:00,26.0,18.0,30.00,NNW,337,13.0,18.0,74,0.00,,,0.00,Rainwise IP-100,2013-02-03 20:18:00,
2013-02-03 15:23:00,25.0,18.0,30.00,NNW,337,13.0,16.0,74,0.00,,,0.00,Rainwise IP-100,2013-02-03 20:23:00,
2013-02-03 15:28:00,25.0,18.0,30.01,NNW,337,15.0,17.0,74,0.00,,,0.00,Rainwise IP-100,2013-02-03 20:28:00,
2013-02-03 15:33:00,25.0,18.0,30.00,NNW,337,12.0,18.0,74,0.00,,,0.00,Rainwise IP-100,2013-02-03 20:33:00,
2013-02-03 15:38:00,25.0,18.0,30.00,North,360,14.0,20.0,74,0.00,,,0.00,Rainwise IP-100,2013-02-03 20:38:00,
2013-02-03 15:43:00,25.0,18.0,30.00,North,360,13.0,17.0,74,0.00,,,0.00,Rainwise IP-100,2013-02-03 20:43:00,
2013-02-03 15:49:00,25.0,18.0,29.99,NNW,337,9.0,17.0,74,0.00,,,0.00,Rainwise IP-100,2013-02-03 20:49:00,
2013-02-03 15:54:00,25.0,18.0,29.99,NNE,22,15.0,17.0,74,0.00,,,0.00,Rainwise IP-100,2013-02-03 20:54:00,
2013-02-03 15:59:00,25.0,18.0,30.00,NNE,22,9.0,15.0,74,0.00,,,0.00,Rainwise IP-100,2013-02-03 20:59:00,
2013-02-03 16:04:00,25.0,18.0,29.99,NNW,337,7.0,16.0,74,0.00,,,0.00,Rainwise IP-100,2013-02-03 21:04:00,
2013-02-03 16:09:00,25.0,18.0,29.99,North,360,9.0,16.0,74,0.00,,,0.00,Rainwise IP-100,2013-02-03 21:09:00,
2013-02-03 16:14:00,25.0,18.0,29.99,NNW,337,1.0,15.0,74,0.00,,,0.00,Rainwise IP-100,2013-02-03 21:14:00,
2013-02-03 16:19:00,25.0,18.0,29.99,NNE,22,5.0,13.0,74,0.00,,,0.00,Rainwise IP-100,2013-02-03 21:19:00,
2013-02-03 16:24:00,24.0,18.0,29.99,NNE,22,12.0,15.0,74,0.00,,,0.00,Rainwise IP-100,2013-02-03 21:24:00,
2013-02-03 16:29:00,24.0,18.0,29.99,NNE,22,10.0,16.0,74,0.00,,,0.00,Rainwise IP-100,2013-02-03 21:29:00,
2013-02-03 16:35:00,24.0,18.0,29.99,North,360,8.0,14.0,74,0.00,,,0.00,Rainwise IP-100,2013-02-03 21:35:00,
2013-02-03 16:40:00,24.0,18.0,29.99,North,360,5.0,10.0,74,0.00,,,0.00,Rainwise IP-100,2013-02-03 21:40:00,
2013-02-03 16:45:00,24.0,18.0,29.99,North,360,9.0,12.0,74,0.00,,,0.00,Rainwise IP-100,2013-02-03 21:45:00,
2013-02-03 16:50:00,24.0,18.0,29.99,North,360,10.0,12.0,74,0.00,,,0.00,Rainwise IP-100,2013-02-03 21:50:00,
2013-02-03 16:55:00,24.0,18.0,29.99,North,360,9.0,16.0,74,0.00,,,0.00,Rainwise IP-100,2013-02-03 21:55:00,
2013-02-03 17:02:00,24.0,18.0,29.99,NNW,337,7.0,15.0,74,0.00,,,0.00,Rainwise IP-100,2013-02-03 22:02:00,
2013-02-03 17:07:00,24.0,18.0,29.98,NNE,22,11.0,13.0,74,0.00,,,0.00,Rainwise IP-100,2013-02-03 22:07:00,
2013-02-03 17:12:00,24.0,18.0,29.98,NNE,22,9.0,12.0,74,0.00,,,0.00,Rainwise IP-100,2013-02-03 22:12:00,
2013-02-03 17:17:00,23.0,16.0,29.98,NNW,337,13.0,13.0,75,0.00,,,0.00,Rainwise IP-100,2013-02-03 22:17:00,
2013-02-03 17:22:00,23.0,16.0,29.98,North,360,12.0,16.0,75,0.00,,,0.00,Rainwise IP-100,2013-02-03 22:22:00,
2013-02-03 17:27:00,23.0,16.0,29.97,North,360,13.0,17.0,75,0.00,,,0.00,Rainwise IP-100,2013-02-03 22:27:00,
2013-02-03 17:32:00,23.0,16.0,29.97,NNE,22,10.0,15.0,75,0.00,,,0.00,Rainwise IP-100,2013-02-03 22:32:00,
2013-02-03 17:37:00,23.0,16.0,29.97,North,360,10.0,15.0,75,0.00,,,0.00,Rainwise IP-100,2013-02-03 22:37:00,
2013-02-03 17:42:00,23.0,16.0,29.96,NNE,22,10.0,17.0,75,0.00,,,0.00,Rainwise IP-100,2013-02-03 22:42:00,
2013-02-03 17:47:00,23.0,16.0,29.96,NNE,22,15.0,17.0,75,0.00,,,0.00,Rainwise IP-100,2013-02-03 22:47:00,
2013-02-03 17:52:00,23.0,16.0,29.96,NNE,22,13.0,17.0,75,0.00,,,0.00,Rainwise IP-100,2013-02-03 22:52:00,
2013-02-03 17:57:00,23.0,16.0,29.96,North,360,13.0,22.0,75,0.00,,,0.00,Rainwise IP-100,2013-02-03 22:57:00,
2013-02-03 18:02:00,22.0,16.0,29.96,North,360,13.0,21.0,75,0.00,,,0.00,Rainwise IP-100,2013-02-03 23:02:00,
2013-02-03 18:07:00,22.0,16.0,29.95,NNE,22,17.0,25.0,75,0.00,,,0.00,Rainwise IP-100,2013-02-03 23:07:00,
2013-02-03 18:12:00,22.0,16.0,29.95,NNE,22,13.0,21.0,75,0.00,,,0.00,Rainwise IP-100,2013-02-03 23:12:00,
2013-02-03 18:17:00,22.0,16.0,29.95,NE,45,21.0,21.0,75,0.00,,,0.00,Rainwise IP-100,2013-02-03 23:17:00,
2013-02-03 18:22:00,22.0,16.0,29.94,NNE,22,16.0,23.0,75,0.00,,,0.00,Rainwise IP-100,2013-02-03 23:22:00,
2013-02-03 18:27:00,22.0,16.0,29.93,NNE,22,16.0,24.0,75,0.00,,,0.00,Rainwise IP-100,2013-02-03 23:27:00,
2013-02-03 18:33:00,22.0,16.0,29.94,NNE,22,15.0,20.0,75,0.00,,,0.00,Rainwise IP-100,2013-02-03 23:33:00,
2013-02-03 18:38:00,22.0,16.0,29.94,NNE,22,19.0,23.0,75,0.00,,,0.00,Rainwise IP-100,2013-02-03 23:38:00,
2013-02-03 18:43:00,22.0,16.0,29.94,NNE,22,16.0,21.0,75,0.00,,,0.00,Rainwise IP-100,2013-02-03 23:43:00,
2013-02-03 18:48:00,22.0,16.0,29.94,North,360,15.0,19.0,75,0.00,,,0.00,Rainwise IP-100,2013-02-03 23:48:00,
2013-02-03 18:53:00,21.0,14.0,29.95,NE,45,15.0,19.0,76,0.00,,,0.00,Rainwise IP-100,2013-02-03 23:53:00,
2013-02-03 18:58:00,21.0,14.0,29.96,NE,45,9.0,17.0,76,0.00,,,0.00,Rainwise IP-100,2013-02-03 23:58:00,
2013-02-03 19:03:00,21.0,14.0,29.96,North,360,14.0,14.0,76,0.00,,,0.00,Rainwise IP-100,2013-02-04 00:03:00,
2013-02-03 19:08:00,21.0,14.0,29.96,NNW,337,9.0,15.0,76,0.00,,,0.00,Rainwise IP-100,2013-02-04 00:08:00,
2013-02-03 19:13:00,21.0,14.0,29.95,North,360,8.0,12.0,76,0.00,,,0.00,Rainwise IP-100,2013-02-04 00:13:00,
2013-02-03 19:21:00,20.0,14.0,29.95,NNW,337,8.0,10.0,76,0.00,,,0.00,Rainwise IP-100,2013-02-04 00:21:00,
2013-02-03 19:26:00,20.0,14.0,29.95,NNE,22,9.0,17.0,76,0.00,,,0.00,Rainwise IP-100,2013-02-04 00:26:00,
2013-02-03 19:31:00,20.0,14.0,29.95,NNE,22,7.0,15.0,76,0.00,,,0.00,Rainwise IP-100,2013-02-04 00:31:00,
2013-02-03 19:36:00,20.0,14.0,29.94,NE,45,6.0,16.0,76,0.00,,,0.00,Rainwise IP-100,2013-02-04 00:36:00,
2013-02-03 19:41:00,20.0,14.0,29.94,NNE,22,8.0,13.0,76,0.00,,,0.00,Rainwise IP-100,2013-02-04 00:41:00,
2013-02-03 19:46:00,20.0,14.0,29.94,NNW,337,6.0,10.0,76,0.00,,,0.00,Rainwise IP-100,2013-02-04 00:46:00,
2013-02-03 19:51:00,20.0,14.0,29.94,NNW,337,9.0,9.0,76,0.00,,,0.00,Rainwise IP-100,2013-02-04 00:51:00,
2013-02-03 19:56:00,20.0,14.0,29.95,NNE,22,10.0,14.0,76,0.00,,,0.00,Rainwise IP-100,2013-02-04 00:56:00,
2013-02-03 20:01:00,20.0,14.0,29.95,NNE,22,11.0,15.0,76,0.00,,,0.00,Rainwise IP-100,2013-02-04 01:01:00,
2013-02-03 20:06:00,20.0,14.0,29.96,North,360,6.0,15.0,76,0.00,,,0.00,Rainwise IP-100,2013-02-04 01:06:00,
2013-02-03 20:11:00,20.0,14.0,29.96,NNE,22,9.0,15.0,76,0.00,,,0.00,Rainwise IP-100,2013-02-04 01:11:00,
2013-02-03 20:16:00,20.0,14.0,29.96,NNW,337,7.0,12.0,76,0.00,,,0.00,Rainwise IP-100,2013-02-04 01:16:00,
2013-02-03 20:21:00,20.0,14.0,29.96,North,360,5.0,10.0,76,0.00,,,0.00,Rainwise IP-100,2013-02-04 01:21:00,
2013-02-03 20:26:00,19.0,14.0,29.97,NNW,337,6.0,7.0,77,0.00,,,0.00,Rainwise IP-100,2013-02-04 01:26:00,
2013-02-03 20:31:00,19.0,14.0,29.96,WNW,292,9.0,13.0,77,0.00,,,0.00,Rainwise IP-100,2013-02-04 01:31:00,
2013-02-03 20:36:00,19.0,14.0,29.95,NNW,337,12.0,14.0,77,0.00,,,0.00,Rainwise IP-100,2013-02-04 01:36:00,
2013-02-03 20:41:00,19.0,14.0,29.94,NNW,337,7.0,16.0,77,0.00,,,0.00,Rainwise IP-100,2013-02-04 01:41:00,
2013-02-03 20:46:00,19.0,14.0,29.94,North,360,7.0,12.0,77,0.00,,,0.00,Rainwise IP-100,2013-02-04 01:46:00,
2013-02-03 20:51:00,19.0,14.0,29.94,NNW,337,7.0,10.0,77,0.00,,,0.00,Rainwise IP-100,2013-02-04 01:51:00,
2013-02-03 20:56:00,19.0,14.0,29.94,NNE,22,9.0,16.0,77,0.00,,,0.00,Rainwise IP-100,2013-02-04 01:56:00,
2013-02-03 21:01:00,19.0,14.0,29.94,NNE,22,11.0,13.0,77,0.00,,,0.00,Rainwise IP-100,2013-02-04 02:01:00,
2013-02-03 21:06:00,19.0,14.0,29.93,NNE,22,10.0,12.0,77,0.00,,,0.00,Rainwise IP-100,2013-02-04 02:06:00,
2013-02-03 21:11:00,19.0,14.0,29.94,NNW,337,5.0,10.0,77,0.00,,,0.00,Rainwise IP-100,2013-02-04 02:11:00,
2013-02-03 21:16:00,19.0,14.0,29.93,NNW,337,7.0,11.0,77,0.00,,,0.00,Rainwise IP-100,2013-02-04 02:16:00,
2013-02-03 21:21:00,19.0,14.0,29.92,NNW,337,9.0,9.0,77,0.00,,,0.00,Rainwise IP-100,2013-02-04 02:21:00,
2013-02-03 21:26:00,19.0,14.0,29.92,North,360,15.0,15.0,77,0.00,,,0.00,Rainwise IP-100,2013-02-04 02:26:00,
2013-02-03 21:31:00,19.0,14.0,29.92,NNW,337,1.0,15.0,77,0.00,,,0.00,Rainwise IP-100,2013-02-04 02:31:00,
2013-02-03 21:36:00,19.0,14.0,29.92,NNW,337,13.0,13.0,77,0.00,,,0.00,Rainwise IP-100,2013-02-04 02:36:00,
2013-02-03 21:41:00,19.0,14.0,29.91,NNW,337,3.0,15.0,77,0.00,,,0.00,Rainwise IP-100,2013-02-04 02:41:00,
2013-02-03 21:47:00,19.0,14.0,29.92,NNW,337,7.0,10.0,77,0.00,,,0.00,Rainwise IP-100,2013-02-04 02:47:00,
2013-02-03 21:52:00,19.0,14.0,29.91,NNW,337,9.0,10.0,77,0.00,,,0.00,Rainwise IP-100,2013-02-04 02:52:00,
2013-02-03 21:57:00,19.0,14.0,29.91,NNW,337,8.0,10.0,77,0.00,,,0.00,Rainwise IP-100,2013-02-04 02:57:00,
2013-02-03 22:02:00,19.0,14.0,29.90,NNW,337,9.0,10.0,77,0.00,,,0.00,Rainwise IP-100,2013-02-04 03:02:00,
2013-02-03 22:07:00,19.0,14.0,29.90,NNW,337,8.0,11.0,77,0.00,,,0.00,Rainwise IP-100,2013-02-04 03:07:00,
2013-02-03 22:12:00,18.0,14.0,29.89,NNW,337,10.0,15.0,77,0.00,,,0.00,Rainwise IP-100,2013-02-04 03:12:00,
2013-02-03 22:17:00,18.0,14.0,29.89,NNW,337,8.0,14.0,77,0.00,,,0.00,Rainwise IP-100,2013-02-04 03:17:00,
2013-02-03 22:23:00,18.0,14.0,29.88,NNW,337,10.0,12.0,77,0.00,,,0.00,Rainwise IP-100,2013-02-04 03:23:00,
2013-02-03 22:28:00,18.0,14.0,29.88,NNW,337,11.0,17.0,77,0.00,,,0.00,Rainwise IP-100,2013-02-04 03:28:00,
2013-02-03 22:33:00,18.0,14.0,29.87,NW,315,7.0,15.0,77,0.00,,,0.00,Rainwise IP-100,2013-02-04 03:33:00,
2013-02-03 22:38:00,18.0,14.0,29.87,NNW,337,8.0,13.0,77,0.00,,,0.00,Rainwise IP-100,2013-02-04 03:38:00,
2013-02-03 22:43:00,18.0,14.0,29.86,NNW,337,8.0,10.0,77,0.00,,,0.00,Rainwise IP-100,2013-02-04 03:43:00,
2013-02-03 22:48:00,18.0,14.0,29.86,NNW,337,10.0,12.0,77,0.00,,,0.00,Rainwise IP-100,2013-02-04 03:48:00,
2013-02-03 22:53:00,18.0,14.0,29.85,NW,315,10.0,13.0,77,0.00,,,0.00,Rainwise IP-100,2013-02-04 03:53:00,
2013-02-03 22:58:00,18.0,14.0,29.85,NNW,337,6.0,12.0,77,0.00,,,0.00,Rainwise IP-100,2013-02-04 03:58:00,
2013-02-03 23:04:00,18.0,14.0,29.86,NNW,337,8.0,9.0,77,0.00,,,0.00,Rainwise IP-100,2013-02-04 04:04:00,
2013-02-03 23:09:00,18.0,14.0,29.86,NNW,337,9.0,13.0,77,0.00,,,0.00,Rainwise IP-100,2013-02-04 04:09:00,
2013-02-03 23:14:00,18.0,14.0,29.85,NNW,337,8.0,15.0,77,0.00,,,0.00,Rainwise IP-100,2013-02-04 04:14:00,
2013-02-03 23:20:00,18.0,14.0,29.85,NNW,337,12.0,16.0,77,0.00,,,0.00,Rainwise IP-100,2013-02-04 04:20:00,
2013-02-03 23:25:00,18.0,14.0,29.86,NNW,337,9.0,12.0,77,0.00,,,0.00,Rainwise IP-100,2013-02-04 04:25:00,
2013-02-03 23:30:00,18.0,14.0,29.86,NW,315,6.0,11.0,77,0.00,,,0.00,Rainwise IP-100,2013-02-04 04:30:00,
2013-02-03 23:35:00,18.0,14.0,29.86,WNW,292,5.0,8.0,77,0.00,,,0.00,Rainwise IP-100,2013-02-04 04:35:00,
2013-02-03 23:40:00,18.0,14.0,29.85,NNW,337,7.0,12.0,77,0.00,,,0.00,Rainwise IP-100,2013-02-04 04:40:00,
2013-02-03 23:45:00,18.0,14.0,29.85,NNW,337,2.0,13.0,77,0.00,,,0.00,Rainwise IP-100,2013-02-04 04:45:00,
2013-02-03 23:51:00,18.0,14.0,29.85,NNW,337,0.0,12.0,77,0.00,,,0.00,Rainwise IP-100,2013-02-04 04:51:00,
2013-02-03 23:56:00,18.0,14.0,29.85,NNW,337,7.0,9.0,77,0.00,,,0.00,Rainwise IP-100,2013-02-04 04:56:00,